Simultaneous Nadir Overpasses (SNOs) Predictions

Prediction of SNOs between NOAA-19 and NPP Satellite Orbit:

Table of predicted SNOs for the next 14.0 days since TLE Epoch: 1/11/2013
Index Date (NOAA-19) Time (NOAA-19) Lat,Lon (NOAA-19) SZA (NOAA-19 ) Date (NPP) Time (NPP) Lat,Lon (NPP) SZA (NPP ) Distance(km) Time Diff (sec)
1 01/16/2013 02:00:23 -80.84, -81.05 74.73 01/16/2013 02:01:39 -80.85, -81.18 74.75 2.38 76
2 01/16/2013 02:51:30 80.84, 86.11 105.28 01/16/2013 02:52:24 80.84, 86.23 105.23 2.14 54
3 01/16/2013 03:42:26 -80.81,-105.91 74.84 01/16/2013 03:43:07 -80.81,-105.90 74.87 0.31 41
4 01/16/2013 04:33:31 80.78, 61.96 105.06 01/16/2013 04:33:51 80.79, 61.87 105.06 1.74 20
5 01/16/2013 05:24:30 -80.80,-131.13 74.90 01/16/2013 05:24:36 -80.80,-130.97 74.93 2.97 6
6 01/16/2013 06:15:34 80.75, 37.09 104.95 01/16/2013 06:15:19 80.75, 37.14 104.94 0.98 15
7 01/16/2013 07:06:30 -80.72,-154.95 75.17 01/16/2013 07:06:02 -80.72,-155.00 75.15 0.86 28
8 01/16/2013 07:57:35 80.68, 12.91 104.73 01/16/2013 07:56:46 80.69, 12.76 104.77 2.89 49




NCC Satellite Simultaneous Nadir Overpasses (SNOs) Prediction Service
